Tracking 29065 objects as of 22-Jul-2024
HD Live streaming from Space Station
objects crossing your sky now

COSMOS 1275 DEB

Track COSMOS 1275 DEB now!
10-day predictions


NORAD ID: 13800
Int'l Code: 1981-053GX
Perigee: 904.7 km
Apogee: 1,144.8 km
Inclination: 83.2 °
Period: 105.5 minutes
Semi major axis: 7395 km
RCS: 0.062 m2 (small)
Launch date: June 4, 1981
Source: Commonwealth of Independent States (former USSR) (CIS)
Launch site: PLESETSK MISSILE AND SPACE COMPLEX (PKMTR)

Note: This is SATELLITE DEBRIS
Your satellite tracking list
Your tracking list is empty




NASA's NSSDC Master Catalog

Two Line Element Set (TLE):
1 13800U 81053GU  24204.34384646  .00002072  00000-0  23243-2 0  9996
2 13800  83.2242 291.7525 0162320 125.8696 303.8294 13.64997950 59182
Source of the keplerian elements: AFSPC